This demonstration page uses our WeatherBlox Daily Observations layout. Learn more.

Left ArrowRight Arrow

36.17497, -115.13722

Hourly Observations for January 25, 2019

Temp ( °F °C ) Dew Point ( °F °C ) Humidity (%) Winds ( mph kmh ) Pressure ( in mb ) Visibility ( mi km ) Precip ( " mm )
12:53 am 00:53 Clear 47 8.3 26 -3.3 44 44 NNW 13 20 30.31 1027 10 16.0934 0 0
1:53 am 01:53 Clear 46 7.8 26 -3.3 46 46 NNW 7 11 30.32 1027 10 16.0934 0 0
2:53 am 02:53 Clear 48 8.9 26 -3.3 42 42 NNW 15 24 30.3 1026 10 16.0934 0 0
3:53 am 03:53 Clear 47 8.3 25 -3.9 42 42 NNW 10 17 30.29 1026 10 16.0934 0 0
4:53 am 04:53 Clear 45 7.2 25 -3.9 46 46 N 6 9 30.29 1026 10 16.0934 0 0
5:53 am 05:53 Clear 45 7.2 25 -3.9 46 46 NNW 16 26 30.29 1026 10 16.0934 0 0
6:53 am 06:53 Sunny 42 5.6 25 -3.9 51 51 NNW 5 7 30.31 1027 10 16.0934 0 0
7:53 am 07:53 Sunny 44 6.7 25 -3.9 47 47 NW 13 20 30.31 1026 10 16.0934 0 0
8:53 am 08:53 Sunny 48 8.9 25 -3.9 41 41 NNW 13 20 30.33 1027 10 16.0934 0 0
9:53 am 09:53 Sunny 53 11.7 24 -4.4 32 32 NNE 12 19 30.32 1027 10 16.0934 0 0
10:53 am 10:53 Sunny 55 12.8 24 -4.4 30 30 ENE 6 9 30.32 1027 10 16.0934 0 0
11:53 am 11:53 Sunny 57 13.9 24 -4.4 28 28 Calm 30.3 1026 10 16.0934 0 0
12:53 pm 12:53 Sunny 58 14.4 20 -6.7 23 23 SE 9 15 30.27 1025 10 16.0934 0 0
1:53 pm 13:53 Sunny 59 15 20 -6.7 22 22 S 8 13 30.24 1024 10 16.0934 0 0
2:53 pm 14:53 Sunny 61 16.1 20 -6.7 20 20 Calm 30.22 1024 10 16.0934 0 0
3:53 pm 15:53 Sunny 61 16.1 20 -6.7 20 20 ESE 5 7 30.22 1023 10 16.0934 0 0
4:53 pm 16:53 Sunny 59 15 20 -6.7 22 22 Calm 30.23 1024 10 16.0934 0 0
5:53 pm 17:53 Clear 56 13.3 21 -6.1 26 26 Calm 30.24 1024 10 16.0934 0 0
6:53 pm 18:53 Clear 56 13.3 22 -5.6 27 27 Calm 30.25 1024 10 16.0934 0 0
7:53 pm 19:53 Clear 54 12.2 21 -6.1 28 28 NNE 7 11 30.27 1025 10 16.0934 0 0
8:53 pm 20:53 Clear 53 11.7 21 -6.1 28 28 N 12 19 30.29 1026 10 16.0934 0 0
9:53 pm 21:53 Clear 55 12.8 20 -6.7 25 25 N 14 22 30.28 1025 10 16.0934 0 0
10:53 pm 22:53 Clear 56 13.3 20 -6.7 24 24 N 12 19 30.29 1026 10 16.0934 0 0
11:53 pm 23:53 Clear 55 12.8 20 -6.7 25 25 N 13 20 30.29 1026 10 16.0934 0 0

Powered by AerisWeather